Home > Weather > Odessa > Past weeks

Flag for USA Past Weather in Odessa, Texas, USA — Yesterday and Last 2 Weeks

Now
76 °F

Clear.


Feels Like: 77 °F
Forecast: 72 / 96 °F
Wind: 17 mph from South

Location: Odessa-Schlemeyer Field

Current Time: May 25, 2016 at 2:18:46 AM

Latest Report: May 25, 2016 at 1:53 AM


Visibility: 8 mi

Pressure: 29.79 "Hg (26.92 "Hg at 882m altitude)

Humidity: 74%

Dew Point: 67 °F

Location of OdessaLocation

Past Weather in Odessa — Graph

°F

Odessa Temperature Yesterday

Maximum temperature yesterday: 98 °F (at 3:53 PM)
Minimum temperature yesterday: 73 °F (at 6:53 AM)
Average temperature yesterday: 84 °F

High & Low Weather Summary for the Past Weeks

 TemperatureHumidityPressure
High98 °F (May 23, 3:53 PM)97% (May 20, 5:00 AM)30.25 "Hg (May 20, 5:00 AM)
Low51 °F (May 18, 6:53 AM)5% (May 24, 3:53 PM)29.59 "Hg (May 23, 4:53 PM)
Average73 °F57%29.88 "Hg
* Reported May 10 12:53 AM — May 25 12:53 AM, Odessa, Weather by CustomWeather, © 2016

Note: Actual official high and low records may vary slightly from our data, if they occured in-between our weather recording intervals... More about our weather records

Advertising

Odessa Weather History for the Previous 24 Hours

Scroll right to see more
 ConditionsComfort  
Time TempWeatherWind HumidityBarometerVisibility
12:53 AM
Wed, May 25
77 °FClear.15 mph69%29.79 "Hg9 mi
11:53 PM
Tue, May 24
79 °FClear.16 mph60%29.79 "Hg9 mi
10:53 PM80 °FLight rain. Clear.18 mph56%29.79 "Hg10 mi
9:53 PM82 °FClear.17 mph48%29.78 "Hg10 mi
8:53 PM86 °FSunny.18 mph37%29.75 "Hg10 mi
7:53 PM89 °FSunny.22 mph31%29.72 "Hg10 mi
6:53 PM95 °FSunny.13 mph5%29.71 "Hg10 mi
5:53 PM97 °FSunny.16 mph5%29.71 "Hg10 mi
4:53 PM97 °FSunny.17 mph5%29.71 "Hg10 mi
3:53 PM98 °FSunny.10 mph5%29.72 "Hg10 mi
2:53 PM97 °FSunny.10 mph7%29.74 "Hg10 mi
1:53 PM94 °FSunny.6 mph16%29.75 "Hg10 mi
12:53 PM93 °FSunny.10 mph16%29.76 "Hg10 mi
11:53 AM91 °FSunny.8 mph23%29.76 "Hg10 mi
10:53 AM84 °FSunny.10 mph40%29.77 "Hg10 mi
9:53 AM79 °FSunny.15 mph62%29.77 "Hg8 mi
8:53 AM76 °FMostly cloudy.20 mph72%29.77 "Hg6 mi
7:53 AM74 °FPartly sunny.17 mph79%29.74 "Hg5 mi
6:53 AM73 °FHaze.12 mph79%29.72 "Hg5 mi
5:53 AM74 °FPassing clouds.12 mph76%29.72 "Hg7 mi
4:53 AM75 °FOvercast.14 mph74%29.72 "Hg8 mi
3:53 AM75 °FOvercast.18 mph76%29.71 "Hg9 mi
2:53 AM75 °FPassing clouds.14 mph76%29.71 "Hg9 mi
Weather by CustomWeather, © 2016

See weather overviewHow to use our weather pages